Stündliche Wetter Holodnyy Klyuch

Heute, 21 Juni, Montag

Zeit Temperatur Niederschläge Wind Luftdruck Luftfeuchtigkeit
00:00 +16°C° 0 mm 1 m/S 747 mmHg 62%
01:00 +15°C° 0 mm 1 m/S 747 mmHg 60%
02:00 +15°C° 0 mm 1 m/S 747 mmHg 62%
03:00 +15°C° 0 mm 1 m/S 747 mmHg 63%
04:00 +15°C° 0 mm 1 m/S 747 mmHg 66%
05:00 +16°C° 0 mm 1 m/S 747 mmHg 65%
06:00 +18°C° 0 mm 1 m/S 748 mmHg 64%
07:00 +20°C° 0 mm 1 m/S 748 mmHg 64%
08:00 +21°C° 0 mm 1 m/S 748 mmHg 61%
09:00 +21°C° 0 mm 2 m/S 748 mmHg 58%
10:00 +23°C° 0 mm 2 m/S 748 mmHg 55%
11:00 +24°C° 0 mm 3 m/S 748 mmHg 54%
12:00 +26°C° 0 mm 3 m/S 748 mmHg 53%
13:00 +27°C° 0 mm 3 m/S 747 mmHg 52%
14:00 +28°C° 0.1 mm 3 m/S 747 mmHg 53%
15:00 +28°C° 0.1 mm 3 m/S 747 mmHg 54%
16:00 +29°C° 0.1 mm 3 m/S 747 mmHg 55%
17:00 +28°C° 0.3 mm 3 m/S 747 mmHg 62%
18:00 +27°C° 0.3 mm 3 m/S 746 mmHg 68%
19:00 +26°C° 0.3 mm 2 m/S 746 mmHg 74%
20:00 +25°C° 0.3 mm 2 m/S 746 mmHg 78%
21:00 +23°C° 0.3 mm 1 m/S 746 mmHg 82%
22:00 +22°C° 0.3 mm 1 m/S 746 mmHg 86%
23:00 +21°C° 0.3 mm 1 m/S 746 mmHg 87%

Morgen, 22 Juni, Dienstag

Zeit Temperatur Niederschläge Wind Luftdruck Luftfeuchtigkeit
00:00 +21°C° 0.3 mm 1 m/S 746 mmHg 89%
01:00 +19°C° 0.3 mm 2 m/S 746 mmHg 91%
02:00 +19°C° 0 mm 2 m/S 746 mmHg 91%
03:00 +20°C° 0 mm 1 m/S 746 mmHg 92%
04:00 +20°C° 0 mm 1 m/S 746 mmHg 92%
05:00 +20°C° 0 mm 2 m/S 746 mmHg 89%
06:00 +21°C° 0 mm 2 m/S 747 mmHg 86%
07:00 +24°C° 0 mm 2 m/S 747 mmHg 83%
08:00 +25°C° 0 mm 2 m/S 747 mmHg 77%
09:00 +27°C° 0 mm 3 m/S 747 mmHg 70%
10:00 +29°C° 0 mm 3 m/S 747 mmHg 64%
11:00 +29°C° 0 mm 4 m/S 747 mmHg 59%
12:00 +30°C° 0 mm 4 m/S 747 mmHg 55%
13:00 +32°C° 0 mm 4 m/S 747 mmHg 51%
14:00 +32°C° 0 mm 4 m/S 747 mmHg 52%
15:00 +32°C° 0 mm 4 m/S 747 mmHg 54%
16:00 +32°C° 0 mm 4 m/S 747 mmHg 55%
17:00 +30°C° 0 mm 3 m/S 746 mmHg 60%
18:00 +29°C° 0 mm 3 m/S 746 mmHg 65%
19:00 +28°C° 0 mm 3 m/S 746 mmHg 69%
20:00 +27°C° 0 mm 3 m/S 746 mmHg 72%
21:00 +25°C° 0 mm 3 m/S 746 mmHg 75%
22:00 +24°C° 0 mm 3 m/S 746 mmHg 78%
23:00 +24°C° 0 mm 3 m/S 746 mmHg 79%

übermorgen, 23 Juni, Mittwoch

Zeit Temperatur Niederschläge Wind Luftdruck Luftfeuchtigkeit
00:00 +22°C° 0 mm 3 m/S 746 mmHg 80%
01:00 +22°C° 0 mm 3 m/S 745 mmHg 82%
02:00 +21°C° 0 mm 3 m/S 745 mmHg 84%
03:00 +21°C° 0 mm 2 m/S 745 mmHg 87%
04:00 +20°C° 0 mm 2 m/S 745 mmHg 89%
05:00 +21°C° 0 mm 2 m/S 745 mmHg 85%
06:00 +24°C° 0 mm 3 m/S 746 mmHg 81%
07:00 +25°C° 0 mm 3 m/S 746 mmHg 77%
08:00 +26°C° 0 mm 3 m/S 746 mmHg 71%
09:00 +28°C° 0 mm 3 m/S 745 mmHg 66%
10:00 +29°C° 0 mm 4 m/S 745 mmHg 60%
11:00 +30°C° 0 mm 4 m/S 745 mmHg 57%
12:00 +32°C° 0 mm 5 m/S 745 mmHg 54%
13:00 +32°C° 0 mm 5 m/S 745 mmHg 51%
14:00 +32°C° 0 mm 5 m/S 745 mmHg 51%
15:00 +33°C° 0 mm 5 m/S 745 mmHg 51%
16:00 +33°C° 0 mm 5 m/S 745 mmHg 52%
17:00 +28°C° 0.8 mm 6 m/S 745 mmHg 65%
18:00 +23°C° 0.8 mm 6 m/S 745 mmHg 77%
19:00 +20°C° 0.8 mm 7 m/S 745 mmHg 90%
20:00 +20°C° 0.9 mm 5 m/S 745 mmHg 91%
21:00 +20°C° 0.9 mm 3 m/S 745 mmHg 92%
22:00 +19°C° 0.9 mm 2 m/S 745 mmHg 93%
23:00 +20°C° 0.1 mm 1 m/S 745 mmHg 94%

24 Juni, Donnerstag

Zeit Temperatur Niederschläge Wind Luftdruck Luftfeuchtigkeit
00:00 +19°C° 0.1 mm 1 m/S 745 mmHg 95%
01:00 +19°C° 0.1 mm 1 m/S 744 mmHg 95%
02:00 +18°C° 0 mm 1 m/S 745 mmHg 95%
03:00 +18°C° 0 mm 1 m/S 745 mmHg 95%
04:00 +18°C° 0 mm 1 m/S 745 mmHg 95%
05:00 +19°C° 0 mm 1 m/S 745 mmHg 93%
06:00 +20°C° 0 mm 1 m/S 745 mmHg 91%
07:00 +21°C° 0 mm 1 m/S 745 mmHg 88%
08:00 +23°C° 0 mm 1 m/S 745 mmHg 83%
09:00 +24°C° 0 mm 1 m/S 745 mmHg 77%
10:00 +23°C° 0 mm 0 m/S 745 mmHg 72%
11:00 +25°C° 0 mm 0 m/S 745 mmHg 67%
12:00 +26°C° 0 mm 0 m/S 745 mmHg 63%
13:00 +27°C° 0 mm 0 m/S 745 mmHg 59%
14:00 +29°C° 0 mm 1 m/S 745 mmHg 57%
15:00 +29°C° 0 mm 2 m/S 745 mmHg 56%
16:00 +30°C° 0 mm 2 m/S 744 mmHg 55%
17:00 +29°C° 0 mm 2 m/S 744 mmHg 60%
18:00 +29°C° 0 mm 1 m/S 744 mmHg 64%
19:00 +27°C° 0 mm 0 m/S 743 mmHg 69%
20:00 +25°C° 0.3 mm 0 m/S 743 mmHg 73%
21:00 +25°C° 0.3 mm 1 m/S 743 mmHg 78%
22:00 +23°C° 0.3 mm 1 m/S 743 mmHg 83%
23:00 +22°C° 0.6 mm 1 m/S 743 mmHg 85%

25 Juni, Freitag

Zeit Temperatur Niederschläge Wind Luftdruck Luftfeuchtigkeit
00:00 +22°C° 0.6 mm 1 m/S 743 mmHg 88%
01:00 +20°C° 0.6 mm 2 m/S 743 mmHg 91%
02:00 +20°C° 0.4 mm 2 m/S 742 mmHg 91%
03:00 +19°C° 0.4 mm 2 m/S 742 mmHg 91%
04:00 +19°C° 0.4 mm 2 m/S 742 mmHg 90%
05:00 +20°C° 0 mm 2 m/S 742 mmHg 88%
06:00 +21°C° 0 mm 3 m/S 742 mmHg 86%
07:00 +22°C° 0 mm 4 m/S 742 mmHg 84%
08:00 +23°C° 0 mm 4 m/S 742 mmHg 78%
09:00 +25°C° 0 mm 4 m/S 741 mmHg 72%
10:00 +26°C° 0 mm 4 m/S 741 mmHg 66%
11:00 +27°C° 0 mm 4 m/S 741 mmHg 64%
12:00 +28°C° 0 mm 4 m/S 741 mmHg 61%
13:00 +29°C° 0 mm 4 m/S 741 mmHg 59%
14:00 +30°C° 0 mm 4 m/S 741 mmHg 58%
15:00 +30°C° 0 mm 4 m/S 741 mmHg 57%
16:00 +30°C° 0 mm 4 m/S 740 mmHg 56%
17:00 +30°C° 1 mm 3 m/S 740 mmHg 63%
18:00 +29°C° 1 mm 2 m/S 740 mmHg 69%
19:00 +28°C° 1 mm 2 m/S 740 mmHg 76%
20:00 +26°C° 0.6 mm 2 m/S 740 mmHg 79%
21:00 +25°C° 0.6 mm 2 m/S 739 mmHg 83%
22:00 +23°C° 0.6 mm 2 m/S 739 mmHg 86%
23:00 +23°C° 1 mm 2 m/S 739 mmHg 88%

26 Juni, Samstag

Zeit Temperatur Niederschläge Wind Luftdruck Luftfeuchtigkeit
00:00 +21°C° 1 mm 2 m/S 739 mmHg 90%
01:00 +21°C° 1 mm 2 m/S 739 mmHg 92%
02:00 +20°C° 0.3 mm 2 m/S 739 mmHg 93%
03:00 +20°C° 0.3 mm 2 m/S 739 mmHg 93%
04:00 +20°C° 0.3 mm 2 m/S 739 mmHg 94%
05:00 +21°C° 0.7 mm 2 m/S 739 mmHg 92%
06:00 +21°C° 0.7 mm 2 m/S 739 mmHg 91%
07:00 +23°C° 0.7 mm 2 m/S 739 mmHg 89%
08:00 +25°C° 0 mm 3 m/S 739 mmHg 82%
09:00 +27°C° 0 mm 3 m/S 739 mmHg 76%
10:00 +29°C° 0 mm 3 m/S 738 mmHg 69%
11:00 +29°C° 0.2 mm 4 m/S 738 mmHg 65%
12:00 +30°C° 0.2 mm 4 m/S 738 mmHg 62%
13:00 +32°C° 0.2 mm 5 m/S 739 mmHg 58%
14:00 +32°C° 0 mm 4 m/S 738 mmHg 57%
15:00 +32°C° 0 mm 4 m/S 738 mmHg 56%
16:00 +32°C° 0 mm 4 m/S 738 mmHg 54%
17:00 +30°C° 0.1 mm 4 m/S 738 mmHg 61%
18:00 +28°C° 0.1 mm 5 m/S 738 mmHg 67%
19:00 +27°C° 0.1 mm 5 m/S 738 mmHg 74%
20:00 +25°C° 0 mm 4 m/S 738 mmHg 77%
21:00 +23°C° 0 mm 4 m/S 738 mmHg 80%
22:00 +21°C° 0 mm 3 m/S 739 mmHg 84%
23:00 +20°C° 0 mm 3 m/S 739 mmHg 86%
Mehr zeigen

Wir brauchen deine Erlaubnis

Meteoprog und unser Service Anbieter werden persönliche Daten aufbewahren, so wie Cookies, Geräte Bezeichnung oder ähnliche Technologien von deinem Gerät und Prozess, so wie Persönliche Daten Inhalte und Werbungen, genauso wie social Media und den Verkehr zu analysieren.

  • Aufbewahrung und/oder Zugang zu deiner Geräte Informationen.

    Cookies, Geräte Bezeichnung oder andere Informationen, können aufbewahrt oder Zugang zu deinem Gerät erhalten, für den Grund, der oben angegeben wird.

  • Personalisierte Werbung und Inhalte, Messungen, Einblick in das Publikum und Produkt Entwicklung.

    Werbungen und Inhalte können personalisiert werden, basierend auf ein Profil. Mehr Daten können besser personalisierte Werbungen und Inhalte hinzufügen. Werbung und Inhalte können gezeigt und gemessen werden. Einblicke über das Publikum, welche die Werbung gesehen haben und den Inhalt, können abgeleitet werden. So wie Daten können genutzt werden, um es zu verbessern oder die Benutzer Erfahrung zu verbessern das System und die Software.

Wenn du “Ich stimme zu” klickst, erlaubst du uns, die Cookies zu benutzen die Geräte Bezeichnung, den Web oder ähnliche Technologien zu benutzen. Deine Settings, können in deinem Gerät bei deinem Browser geändert werden.

Für den bestimmten Zweck, berechtigten Interessen beruhen darauf, mehr als auf den Inhalt. Du kannst mehr darüber in unseren Privaten und Cookie Politik lesen.